ARABSAT-5A

Last updated on Jan. 19, 2020, 4:37 a.m. UTC

1 36745U 10032B   20018.52736747  .00000149  00000-0  00000-0 0  9997
2 36745   0.0689  50.7698 0001230 277.5484   9.3815  1.00272535 35164
UTC
Height (km)
Latitude
Longitude
Inclination
Orbital Period
UTC large
Height (km)
Speed (km/s)
/
Latitude / Longitude
Inclination (degrees)
Orbital Period (minutes)
Azimuth
Elevation
Range (km)
Doppler Factor
iOS Compass Heading
iOS Angle

Next 30 passes for location: Hong Kong

Rise time Rise Azimuth (degrees) Set time Set Azimuth (degrees) Duration Max altitude (degrees)

No matching passes for this satellites